Home   Weather   Prince Rupert   Past weeks

Flag for Canada Past Weather in Prince Rupert, British Columbia, Canada — Yesterday and Last 2 Weeks

Now
36 °F

Overcast.


Feels Like: 36 °F
Forecast: 31 / 40 °F
Wind: 2 mph from Northeast

Location: Prince Rupert

Current Time: Jan 20, 2017 at 6:11:39 am

Latest Report: Jan 20, 2017 at 5:00 am


Visibility: 9 mi

Pressure: 29.29 "Hg

Humidity: 93%

Dew Point: 34 °F

Location of Prince RupertLocation

Past Weather in Prince Rupert — Graph

°F

Prince Rupert Temperature Yesterday

Maximum temperature yesterday: 41 °F (at 12:05 am)
Minimum temperature yesterday: 36 °F (at 10:00 pm)
Average temperature yesterday: 40 °F

High & Low Weather Summary for the Past Weeks

 TemperatureHumidityPressure
High46 °F (Jan 15, 8:00 pm)100% (Jan 5, 5:19 am)30.27 "Hg (Jan 5, 5:19 am)
Low18 °F (Jan 10, 1:00 am)40% (Jan 10, 12:00 pm)28.73 "Hg (Jan 18, 5:00 am)
Average37 °F85%29.67 "Hg
* Reported Jan 5 5:19 am — Jan 20 5:00 am, Prince Rupert, Weather by CustomWeather, © 2017

Note: Actual official high and low records may vary slightly from our data, if they occured in-between our weather recording intervals... More about our weather records

Advertising

Prince Rupert Weather History for the Previous 24 Hours

Scroll right to see more
 ConditionsComfort  
Time TempWeatherWind HumidityBarometerVisibility
5:00 am
Fri, Jan 20
36 °FOvercast.2 mph93%29.29 "Hg9 mi
4:00 am34 °FMostly cloudy.No wind100%29.30 "Hg9 mi
3:00 am36 °FOvercast.5 mph100%29.30 "Hg9 mi
2:00 am36 °FOvercast.7 mph100%29.30 "Hg9 mi
1:09 am36 °FOvercast.7 mph100%29.29 "Hg9 mi
12:00 am36 °FLight rain. Overcast.5 mph100%29.30 "Hg9 mi
11:00 pm
Thu, Jan 19
36 °FLight rain. Overcast.5 mph100%29.29 "Hg9 mi
10:00 pm36 °FLight rain. Overcast.5 mph100%29.29 "Hg9 mi
9:03 pm37 °FLight rain. Passing clouds.5 mph93%29.28 "Hg9 mi
8:38 pm37 °FLight rain. Mostly cloudy.5 mph93%29.28 "Hg9 mi
8:00 pm37 °FLight rain. Overcast.3 mph93%29.27 "Hg9 mi
7:03 pm37 °FLight rain. Overcast.7 mph93%29.27 "Hg9 mi
6:30 pm37 °FLight rain. Mostly cloudy.3 mph100%29.27 "Hg9 mi
6:00 pm37 °FLight rain. Mostly cloudy.2 mph100%29.27 "Hg8 mi
5:04 pm39 °FLight rain. Overcast.5 mph93%29.26 "Hg7 mi
4:00 pm39 °FLight rain. Mostly cloudy.5 mph100%29.24 "Hg9 mi
3:00 pm41 °FLight rain. Mostly cloudy.6 mph87%29.23 "Hg9 mi
2:00 pm39 °FLight rain. Mostly cloudy.9 mph93%29.22 "Hg9 mi
1:00 pm41 °FLight rain. Mostly cloudy.5 mph93%29.21 "Hg9 mi
12:40 pm41 °FLight rain. Fog.5 mph93%29.21 "Hg4 mi
12:16 pm41 °FLight rain. Fog.3 mph93%29.21 "Hg6 mi
11:45 am41 °FLight rain. Fog.5 mph93%29.20 "Hg4 mi
11:33 am41 °FLight rain. Fog.3 mph100%29.20 "Hg6 mi
11:15 am41 °FLight rain. Fog.5 mph100%29.19 "Hg3 mi
10:56 am41 °FLight rain. Fog.5 mph100%29.18 "Hg4 mi
10:44 am41 °FLight rain. Fog.6 mph93%29.18 "Hg2 mi
10:38 am41 °FFog.5 mph93%29.18 "Hg4 mi
10:22 am41 °FLight rain. Fog.5 mph93%29.17 "Hg2 mi
10:08 am39 °FLight rain. Fog.5 mph100%29.17 "Hg1 mi
9:30 am39 °FLight rain. Fog.8 mph100%29.15 "Hg1 mi
9:21 am39 °FLight rain. Fog.6 mph100%29.15 "Hg2 mi
9:00 am39 °FLight rain. Fog.7 mph100%29.14 "Hg3 mi
8:44 am39 °FFog.5 mph100%29.14 "Hg4 mi
8:00 am39 °FOvercast.3 mph100%29.12 "Hg9 mi
7:13 am39 °FOvercast.5 mph100%29.10 "Hg9 mi
7:00 am39 °FLight rain. Mostly cloudy.6 mph100%29.10 "Hg9 mi
6:00 am41 °FLight rain. Overcast.3 mph93%29.09 "Hg9 mi
Weather by CustomWeather, © 2017

See weather overviewHow to use our weather pages